Regional Weather Roundup
Issued by NWS

Home | Current Version | Previous Version | Graphics & Text | Print | Product List | Glossary On
Versions: 1 2 3 4 5 6 7 8 9 10 11 12 13 14 15 16 17 18 19 20 21 22 23 24 25 26 27
000
ASUS45 KTFX 180910
RWRMT
MONTANA REGIONAL WEATHER ROUNDUP
NATIONAL WEATHER SERVICE GREAT FALLS MT
300 AM MDT FRI AUG 18 2017

NOTE: "FAIR" INDICATES FEW OR NO CLOUDS BELOW 12000 FEET WITH NO
SIGNIFICANT WEATHER AND/OR OBSTRUCTIONS TO VISIBILITY.

MTZ001>007-043-181000-
WEST OF THE DIVIDE

CITY           SKY/WX    TMP DP  RH WIND       PRES   REMARKS
KALISPELL      CLEAR     50  42  74 CALM      30.05S
MISSOULA       CLEAR     55  42  61 CALM      30.10S
BUTTE          PTCLDY    48  35  60 CALM      30.22S
MULLAN PASS    CLEAR     57  34  41 VRB5      30.22F
ANACONDA         N/A     57  36  44 SW9       30.18S
DEER LODGE       N/A     52  37  58 CALM      30.19S
EUREKA           N/A     57  43  58 MISG      30.02
HAMILTON         N/A     55  37  50 S6        30.12F
LIBBY            N/A     52  43  71 CALM      30.04S
PLAINS           N/A     52  39  61 CALM      30.07S
RONAN            N/A     52  43  71 CALM      30.11S
$$

MTZ008-052>055-181000-
SOUTHWEST MONTANA

CITY           SKY/WX    TMP DP  RH WIND       PRES   REMARKS
BOZEMAN        CLEAR     49  40  71 SE6       30.15S
DILLON         CLEAR     54  35  48 S9        30.19R
W YELLOWSTONE  CLEAR     41  37  87 CALM      30.28F
ENNIS          PTCLDY    50  39  66 E5        30.24S
THREE FORKS      N/A     46  38  74 CALM      30.11S
TWIN BRIDGES     N/A     52  32  46 CALM      30.15R
$$

MTZ009-010-012-014-046-048-049-054-181000-
EAST SLOPES AND CENTRAL MONTANA

CITY           SKY/WX    TMP DP  RH WIND       PRES   REMARKS
CUT BANK       CLEAR     57  40  52 W5        30.03S
GREAT FALLS    CLEAR     59  36  42 SW9       30.05S
MALMSTROM AFB  CLEAR     58  38  47 W6        30.04S
HELENA         CLEAR     62  39  42 E3        30.11R
AUGUSTA          N/A     55  33  43 W8        30.08F
BOWMANS CRNR     N/A     60  35  39 SW7       30.08S
CHOTEAU          N/A     57  36  44 SW6       30.07S
FAIRFIELD        N/A     59  35  41 CALM      30.05S
POWER            N/A     54  34  46 CALM      30.04S
RAYNESFORD       N/A     54  37  52 CALM      30.08S
ULM              N/A     56  36  47 CALM      30.05S
$$

MTZ011-013-016-021-045-047-050-051-181000-
NORTH CENTRAL MONTANA

CITY           SKY/WX    TMP DP  RH WIND       PRES   REMARKS
HAVRE          CLEAR     55  35  47 S7        29.98R
LEWISTOWN      PTCLDY    52  36  54 SE7       30.08S
N BAR RANCH      N/A     54  34  47 W5        30.12S
CHINOOK          N/A     55  45  67 CALM      29.98S
DENTON           N/A     53  36  51 SW8       30.02R
GEYSER           N/A     59  36  41 SW14      30.07S
GRASS RANGE      N/A     57  34  42 W5        30.03S
JUDITH GAP       N/A     59  34  39 SW8       30.11S
WINIFRED       MOCLDY    62  34  35 NW6       30.04S
$$

MTZ017>020-022>027-061-062-181000-
NORTHEAST MONTANA

CITY           SKY/WX    TMP DP  RH WIND       PRES   REMARKS
GLASGOW        CLEAR     59  45  59 E10       29.96S
JORDAN           N/A     53  35  50 W3        29.98S
SIDNEY         LGT RAIN  65  55  70 N10       29.96R
WOLF POINT     PTCLDY    54  45  71 W6        29.98R
MALTA          CLOUDY    52  46  82 CALM      29.97F
PLENTYWOOD       N/A     57  52  82 CALM      29.96S
POPLAR           N/A     63  54  72 W3        29.97R
SCOBEY           N/A     55  46  71 CALM      29.97S
$$

MTZ028>42-056>058-181000-
SOUTHCENTRAL AND SOUTHEAST MONTANA

CITY           SKY/WX    TMP DP  RH WIND       PRES   REMARKS
BAKER          MOCLDY    59  45  59 W3        30.00R
BILLINGS       CLEAR     65  37  35 SW9       30.06R
LIVINGSTON     CLEAR     50  38  63 VRB3      30.14S
MILES CITY     CLEAR     59  40  49 NW7       29.98S
BIG TIMBER     CLOUDY    54  37  54 SW8       30.15R
EKALAKA          N/A     56  39  52 SE5       30.00S
HARLOWTON        N/A     53  35  50 MISG      30.11R
LAUREL           N/A     58  35  42 CALM      30.05F
$$

REGIONAL REPORTS...DAKOTAS

CITY           SKY/WX    TMP DP  RH WIND       PRES   REMARKS
WILLISTON      CLOUDY    60  56  86 CALM      29.96R
MINOT          CLOUDY    61  58  90 NW7       29.87F
DICKINSON      CLEAR     54  49  83 W5        29.94R
BEACH          MOCLDY    50  50 100 SW6       30.00S
CROSBY           N/A     54  54 100 SW3       29.95R
TIOGA            N/A     52  54 100 N6        29.96R
WATFORD CITY     N/A     55  55 100 SW3       29.95R
BISMARCK       CLEAR     64  59  83 NW12      29.87S
GRAND FORKS    PTCLDY    61  60  97 W6        29.83S
FARGO          CLOUDY    62  59  90 SW5       29.86R
BUFFALO SD       N/A     63  44  50 NW6       29.93S
RAPID CITY     CLEAR     61  45  55 NW6       30.00S
$$

REGIONAL REPORTS...WYOMING/IDAHO/WASHINGTON

CITY           SKY/WX    TMP DP  RH WIND       PRES   REMARKS
GILLETTE       PTCLDY    64  44  48 SW15      30.09R
SHERIDAN       CLEAR     55  40  56 CALM      30.08S
BUFFALO WY     CLOUDY    60  35  39 W10       30.14F
CODY           CLEAR     61  38  42 CALM      30.17S
YELLOWSTONE LA   N/A     38  36  92 CALM      30.36F
IDAHO FALLS    CLEAR     53  41  63 CALM      30.16S
SALMON         CLEAR     52  42  69 CALM      30.16R
BOISE          CLEAR     63  39  41 SE5       30.05S
SPOKANE        CLEAR     62  42  47 SE7       30.04F
$$

REGIONAL REPORTS...ALBERTA

CITY           SKY/WX    TMP DP  RH WIND       PRES   REMARKS
EDMONTON       CLEAR     55  52  88 SW7       29.89F
CALGARY        CLEAR     50  45  81 N2        29.97F SMOKE
LETHBRIDGE     CLEAR     59  43  55 SW13      29.95F
MEDICINE HAT   CLEAR     55  46  71 E3        29.93F
$$

REGIONAL REPORTS...SASKATCHEWAN

CITY           SKY/WX    TMP DP  RH WIND       PRES   REMARKS
SWIFT CURRENT  CLEAR     52  43  71 SW9       29.97S
SASKATOON      CLEAR     52  48  87 SW8       29.92S
$$




USA.gov is the U.S. government's official web portal to all federal, state and local government web resources and services.